Weather reports worldwide

Advertisment
Moron de la Frontera, Spain (8397): temperature & dewpoint: 06.12.2018 00:00:00 - 12.12.2018 00:00:00 (CET)Moron de la Frontera, Spain (8397): wind speed: 06.12.2018 00:00:00 - 12.12.2018 00:00:00 (CET)Moron de la Frontera, Spain (8397): wind direction: 06.12.2018 00:00:00 - 12.12.2018 00:00:00 (CET)Moron de la Frontera, Spain (8397): reduced air pressure: 06.12.2018 00:00:00 - 12.12.2018 00:00:00 (CET)Moron de la Frontera, Spain (8397): visibility: 06.12.2018 00:00:00 - 12.12.2018 00:00:00 (CET)
Date & Time tt [°C] td [°C] ff [km/h] ff [kn] dd ppp [hPa] vv [km]
12.12.2018 00:00:00 - - - - - - -
11.12.2018 23:00:00 - - - - - - -
11.12.2018 22:00:00 - - - - - - -
11.12.2018 21:00:00 - - - - - - -
11.12.2018 20:00:00 - - - - - - -
11.12.2018 19:00:00 15,1 10,3 5 3 SSW 1023,6 12
11.12.2018 18:00:00 - - - - - - -
11.12.2018 17:00:00 - - - - - - -
11.12.2018 16:00:00 16,4 10,0 9 5 SW 1023,4 15
11.12.2018 15:00:00 - - - - - - -
11.12.2018 14:00:00 - - - - - - -
11.12.2018 13:00:00 16,9 8,6 16 9 SSW 1024,5 15
11.12.2018 12:00:00 - - - - - - -
11.12.2018 11:00:00 - - - - - - -
11.12.2018 10:00:00 9,9 7,7 5 3 S 1025,5 15
11.12.2018 09:00:00 - - - - - - -
11.12.2018 08:00:00 - - - - - - -
11.12.2018 07:00:00 6,3 4,8 8 4 SSE 1024,5 15
11.12.2018 06:00:00 - - - - - - -
11.12.2018 05:00:00 - - - - - - -
11.12.2018 04:00:00 8,4 6,5 4 2 SSW 1024,4 15
11.12.2018 03:00:00 - - - - - - -
11.12.2018 02:00:00 - - - - - - -
11.12.2018 01:00:00 9,1 6,9 5 3 SSW 1024,5 15
11.12.2018 00:00:00 - - - - - - -
10.12.2018 23:00:00 - - - - - - -
10.12.2018 22:00:00 11,9 8,6 5 3 S 1024,4 15
10.12.2018 21:00:00 - - - - - - -
10.12.2018 20:00:00 - - - - - - -
10.12.2018 19:00:00 16,6 7,8 5 3 SW 1023,8 5
10.12.2018 18:00:00 - - - - - - -
10.12.2018 17:00:00 - - - - - - -
10.12.2018 16:00:00 23,7 8,9 4 2 W 1023,5 25
10.12.2018 15:00:00 - - - - - - -
10.12.2018 14:00:00 - - - - - - -
10.12.2018 13:00:00 19,6 8,0 15 8 ENE 1025,2 25
10.12.2018 12:00:00 - - - - - - -
10.12.2018 11:00:00 - - - - - - -
10.12.2018 10:00:00 12,4 6,5 15 8 ENE 1026,5 25
10.12.2018 09:00:00 - - - - - - -
10.12.2018 08:00:00 - - - - - - -
10.12.2018 07:00:00 10,1 7,0 9 5 ENE 1026,4 15
10.12.2018 06:00:00 - - - - - - -
10.12.2018 05:00:00 - - - - - - -
10.12.2018 04:00:00 10,4 7,6 5 3 ENE 1027,1 10
10.12.2018 03:00:00 - - - - - - -
10.12.2018 02:00:00 - - - - - - -
10.12.2018 01:00:00 10,2 8,1 5 3 E 1028,2 8
10.12.2018 00:00:00 - - - - - - -
09.12.2018 23:00:00 - - - - - - -
09.12.2018 22:00:00 11,0 8,4 4 2 NE 1028,5 8
09.12.2018 21:00:00 - - - - - - -
09.12.2018 20:00:00 - - - - - - -
09.12.2018 19:00:00 16,8 7,7 5 3 NE 1027,6 20
09.12.2018 18:00:00 - - - - - - -
09.12.2018 17:00:00 - - - - - - -
09.12.2018 16:00:00 21,0 8,9 4 2 ENE 1026,8 20
09.12.2018 15:00:00 - - - - - - -
09.12.2018 14:00:00 - - - - - - -
09.12.2018 13:00:00 17,6 9,0 8 4 E 1028,2 15
09.12.2018 12:00:00 - - - - - - -
09.12.2018 11:00:00 - - - - - - -
09.12.2018 10:00:00 9,6 8,0 8 4 NE 1029,7 6
09.12.2018 09:00:00 - - - - - - -
09.12.2018 08:00:00 - - - - - - -
09.12.2018 07:00:00 7,7 6,5 5 3 NE 1029,3 6
09.12.2018 06:00:00 - - - - - - -
09.12.2018 05:00:00 - - - - - - -
09.12.2018 04:00:00 9,1 7,4 5 3 ENE 1029,3 7
09.12.2018 03:00:00 - - - - - - -
09.12.2018 02:00:00 - - - - - - -
09.12.2018 01:00:00 9,7 7,6 8 4 ENE 1029,5 7
09.12.2018 00:00:00 - - - - - - -
08.12.2018 23:00:00 - - - - - - -
08.12.2018 22:00:00 11,1 8,1 4 2 E 1029,1 15
08.12.2018 21:00:00 - - - - - - -
08.12.2018 20:00:00 - - - - - - -
08.12.2018 19:00:00 14,0 7,8 5 3 E 1028,2 20
08.12.2018 18:00:00 - - - - - - -
08.12.2018 17:00:00 - - - - - - -
08.12.2018 16:00:00 17,2 7,8 15 8 ENE 1027,9 25
08.12.2018 15:00:00 - - - - - - -
08.12.2018 14:00:00 - - - - - - -
08.12.2018 13:00:00 15,5 8,5 13 7 E 1029,1 25
08.12.2018 12:00:00 - - - - - - -
08.12.2018 11:00:00 - - - - - - -
08.12.2018 10:00:00 10,6 8,4 15 8 ENE 1029,6 8
08.12.2018 09:00:00 - - - - - - -
08.12.2018 08:00:00 - - - - - - -
08.12.2018 07:00:00 8,9 7,4 13 7 ENE 1028,6 5
08.12.2018 06:00:00 - - - - - - -
08.12.2018 05:00:00 - - - - - - -
08.12.2018 04:00:00 8,1 6,4 4 2 E 1028,9 5
08.12.2018 03:00:00 - - - - - - -
08.12.2018 02:00:00 - - - - - - -
08.12.2018 01:00:00 8,8 6,6 0 0 N 1029,4 7
08.12.2018 00:00:00 - - - - - - -
07.12.2018 23:00:00 - - - - - - -
07.12.2018 22:00:00 10,5 7,7 5 3 SSE 1029,3 7
07.12.2018 21:00:00 - - - - - - -
07.12.2018 20:00:00 - - - - - - -
07.12.2018 19:00:00 15,9 8,2 4 2 N 1028,2 15
07.12.2018 18:00:00 - - - - - - -
07.12.2018 17:00:00 - - - - - - -
07.12.2018 16:00:00 19,7 8,4 5 3 E 1027,2 20
07.12.2018 15:00:00 - - - - - - -
07.12.2018 14:00:00 - - - - - - -
07.12.2018 13:00:00 17,0 8,4 15 8 NNE 1028,8 15
07.12.2018 12:00:00 - - - - - - -
07.12.2018 11:00:00 - - - - - - -
07.12.2018 10:00:00 11,8 9,2 8 4 E 1028,6 5
07.12.2018 09:00:00 - - - - - - -
07.12.2018 08:00:00 - - - - - - -
07.12.2018 07:00:00 8,9 7,2 5 3 E 1027,2 4,5
07.12.2018 06:00:00 - - - - - - -
07.12.2018 05:00:00 - - - - - - -
07.12.2018 04:00:00 10,5 7,9 5 3 ENE 1027,0 15
07.12.2018 03:00:00 - - - - - - -
07.12.2018 02:00:00 - - - - - - -
07.12.2018 01:00:00 11,5 8,7 9 5 E 1026,9 15
07.12.2018 00:00:00 - - - - - - -
06.12.2018 23:00:00 - - - - - - -
06.12.2018 22:00:00 11,8 9,0 4 2 ENE 1027,0 20
06.12.2018 21:00:00 - - - - - - -
06.12.2018 20:00:00 - - - - - - -
06.12.2018 19:00:00 16,2 8,7 2 1 SE 1026,3 25
06.12.2018 18:00:00 - - - - - - -
06.12.2018 17:00:00 - - - - - - -
06.12.2018 16:00:00 21,2 9,4 11 6 ENE 1025,6 25
06.12.2018 15:00:00 - - - - - - -
06.12.2018 14:00:00 - - - - - - -
06.12.2018 13:00:00 18,1 9,5 11 6 ENE 1027,0 25
06.12.2018 12:00:00 - - - - - - -
06.12.2018 11:00:00 - - - - - - -
06.12.2018 10:00:00 12,9 9,2 11 6 ENE 1027,4 25
06.12.2018 09:00:00 - - - - - - -
06.12.2018 08:00:00 - - - - - - -
06.12.2018 07:00:00 9,8 8,2 8 4 ENE 1026,8 8
06.12.2018 06:00:00 - - - - - - -
06.12.2018 05:00:00 - - - - - - -
06.12.2018 04:00:00 9,5 7,9 5 3 N 1026,6 5
06.12.2018 03:00:00 - - - - - - -
06.12.2018 02:00:00 - - - - - - -
06.12.2018 01:00:00 10,0 8,4 0 0 N 1026,6 10
06.12.2018 00:00:00 - - - - - - -

tt = temperature
td = dewpoint
ff = wind speed
dd = wind direction
ppp = reduced air pressure
vv = visibility

Next stations